| time (UTC) | temp F | wind direction | speed MPH | gust MPH | rain 1hr in | rain 24hr in | rain mn in | humidity % | barometer mb |
| 20260505003055 | 50 | 18 | 1.0 | 4.0 | 0.00 | 0.01 | 0.01 | 58 | 1012.0 |
| 20260505001558 | 50 | 56 | 0.0 | 3.0 | 0.00 | 0.01 | 0.01 | 58 | 1012.0 |
| 20260505000115 | 50 | 0 | 0.0 | 2.0 | 0.00 | 0.01 | 0.01 | 60 | 1012.0 |
| 20260504234558 | 50 | 0 | 0.0 | 3.0 | 0.00 | 0.01 | 0.01 | 60 | 1011.9 |
| 20260504233108 | 50 | 0 | 0.0 | 1.0 | 0.00 | 0.01 | 0.01 | 61 | 1012.0 |
| 20260504231555 | 49 | 0 | 0.0 | 3.0 | 0.01 | 0.01 | 0.01 | 65 | 1012.0 |
| 20260504230056 | 49 | 0 | 2.0 | 9.0 | 0.01 | 0.01 | 0.01 | 65 | 1011.5 |
| 20260504224609 | 48 | 94 | 0.0 | 2.0 | 0.01 | 0.01 | 0.01 | 77 | 1011.9 |
| 20260504223131 | 48 | 233 | 1.0 | 6.0 | 0.01 | 0.01 | 0.01 | 67 | 1012.4 |
| 20260504221600 | 52 | 241 | 2.0 | 6.0 | 0.00 | 0.00 | 0.00 | 54 | 1012.8 |
| 20260504220100 | 53 | 0 | 0.0 | 7.0 | 0.00 | 0.00 | 0.00 | 46 | 1011.9 |
| 20260504214559 | 53 | 0 | 3.0 | 8.0 | 0.00 | 0.00 | 0.00 | 45 | 1011.1 |
| 20260504213105 | 55 | 36 | 3.0 | 11.0 | 0.00 | 0.00 | 0.00 | 40 | 1011.2 |
| 20260504211602 | 56 | 30 | 5.0 | 13.0 | 0.00 | 0.00 | 0.00 | 37 | 1011.4 |
| 20260504210100 | 59 | 27 | 0.0 | 14.0 | 0.00 | 0.00 | 0.00 | 33 | 1011.2 |
| 20260504204557 | 63 | 49 | 1.0 | 7.0 | 0.00 | 0.00 | 0.00 | 26 | 1010.8 |
| 20260504203111 | 62 | 0 | 1.0 | 8.0 | 0.00 | 0.00 | 0.00 | 30 | 1010.7 |
| 20260504201601 | 60 | 5 | 0.0 | 6.0 | 0.00 | 0.00 | 0.00 | 29 | 1010.9 |
| 20260504200115 | 59 | 194 | 1.0 | 18.0 | 0.00 | 0.00 | 0.00 | 30 | 1011.1 |
| 20260504194559 | 59 | 283 | 6.0 | 13.0 | 0.00 | 0.00 | 0.00 | 31 | 1011.5 |
| 20260504193056 | 60 | 210 | 4.0 | 14.0 | 0.00 | 0.00 | 0.00 | 29 | 1011.2 |
| 20260504191602 | 61 | 211 | 4.0 | 14.0 | 0.00 | 0.00 | 0.00 | 25 | 1011.3 |
| 20260504190100 | 62 | 205 | 3.0 | 10.0 | 0.00 | 0.00 | 0.00 | 26 | 1011.2 |
| 20260504184600 | 62 | 171 | 2.0 | 10.0 | 0.00 | 0.00 | 0.00 | 27 | 1011.3 |
| 20260504183057 | 62 | 252 | 3.0 | 6.0 | 0.00 | 0.00 | 0.00 | 27 | 1011.6 |
| 20260504181557 | 63 | 187 | 3.0 | 9.0 | 0.00 | 0.00 | 0.00 | 26 | 1011.7 |
| 20260504180056 | 64 | 16 | 2.0 | 6.0 | 0.00 | 0.00 | 0.00 | 26 | 1011.9 |
| 20260504174615 | 62 | 150 | 1.0 | 5.0 | 0.00 | 0.00 | 0.00 | 28 | 1012.2 |
| 20260504173100 | 60 | 66 | 0.0 | 4.0 | 0.00 | 0.00 | 0.00 | 30 | 1012.7 |
| 20260504171557 | 58 | 20 | 2.0 | 6.0 | 0.00 | 0.00 | 0.00 | 31 | 1013.0 |
| 20260504160107 | 55 | 206 | 3.0 | 14.0 | 0.00 | 0.00 | 0.00 | 35 | 1012.8 |
| 20260504150106 | 54 | 260 | 1.0 | 7.0 | 0.00 | 0.00 | 0.00 | 34 | 1012.9 |
| 20260504090104 | 47 | 241 | 0.0 | 2.0 | 0.00 | 0.00 | 0.00 | 34 | 1013.0 |
| 20260504081555 | 48 | 236 | 1.0 | 3.0 | 0.00 | 0.00 | 0.00 | 35 | 1013.2 |
| 20260504044605 | 51 | 212 | 1.0 | 4.0 | 0.00 | 0.00 | 0.00 | 34 | 1014.8 |
| 20260504043059 | 51 | 245 | 1.0 | 8.0 | 0.00 | 0.00 | 0.00 | 34 | 1014.8 |
| 20260504041557 | 53 | 238 | 1.0 | 4.0 | 0.00 | 0.00 | 0.00 | 33 | 1014.9 |
| 20260504040114 | 55 | 0 | 2.0 | 5.0 | 0.00 | 0.00 | 0.00 | 29 | 1014.9 |
| 20260504034622 | 55 | 210 | 0.0 | 4.0 | 0.00 | 0.00 | 0.00 | 29 | 1015.1 |
| 20260504033058 | 56 | 219 | 0.0 | 7.0 | 0.00 | 0.00 | 0.00 | 28 | 1015.1 |
| 20260504031556 | 56 | 212 | 4.0 | 11.0 | 0.00 | 0.00 | 0.00 | 29 | 1015.1 |
| 20260504030121 | 56 | 210 | 3.0 | 11.0 | 0.00 | 0.00 | 0.00 | 30 | 1015.1 |
| 20260504024600 | 56 | 171 | 3.0 | 12.0 | 0.00 | 0.00 | 0.00 | 30 | 1014.9 |
| 20260504023057 | 56 | 224 | 4.0 | 13.0 | 0.00 | 0.00 | 0.00 | 30 | 1014.9 |
| 20260504021557 | 57 | 184 | 4.0 | 11.0 | 0.00 | 0.00 | 0.00 | 28 | 1014.8 |
| 20260504020107 | 57 | 201 | 3.0 | 9.0 | 0.00 | 0.00 | 0.00 | 27 | 1014.8 |
| 20260504014604 | 58 | 119 | 4.0 | 9.0 | 0.00 | 0.00 | 0.00 | 27 | 1014.9 |
| 20260504013058 | 58 | 229 | 2.0 | 4.0 | 0.00 | 0.00 | 0.00 | 27 | 1014.8 |
| 20260504011556 | 59 | 192 | 4.0 | 9.0 | 0.00 | 0.00 | 0.00 | 26 | 1014.6 |
| 20260504010058 | 59 | 262 | 1.0 | 5.0 | 0.00 | 0.00 | 0.00 | 25 | 1014.8 |
| 20260504004556 | 59 | 218 | 1.0 | 8.0 | 0.00 | 0.00 | 0.00 | 26 | 1014.9 |